Location: Castle
(40.7167°S, 175.9500°E)
Time: 02:14:26
(UTC+00:00)

SL-16 R/B - Pass Details

Date: 04 August 2024
Orbit: 985 x 1006 km, 99.7° (Epoch: 07 September)

Event Time Altitude Azimuth Distance (km) Brightness Sun altitude
Rises 16:31:31 0° 170° (S) 3,761 5.7 -31.8°
Reaches altitude 10° 16:34:03 10° 173° (S) 2,802 5.0 -31.3°
Enters shadow 16:37:18 32° 184° (S) 1,672 3.6 -30.7°
